AFL794 UWKD-LTAI

Flight info

Callsign AFL794
Flight time N/A
Altitude 33000
Route INTAR1G INTAR DCT DOGUR DCT GUTAN DCT KOLIB/K0848F340 DCT IPLED DCT LURIS/N0457F340 DCT SARPI UN37 ZUBRE/N0453F360 UN37 TBN DCT BAMLA DCT HALIL/N0457F350 UW77 HISAR
Aircraft A320/M-SDE3FGHIRWY/LB1

Departure

Time 2026-04-27 12:49
Airport Kazan International Airport (UWKD)

Arrival

Time N/A
Airport Antalya International Airport (LTAI)
Time Latitude Longitude Altitude Speed Heading
2026-04-27 12:31 55.60696 49.30021 415 ft 0 kts 34°
2026-04-27 12:34 55.60692 49.30016 415 ft 4 kts 34°
2026-04-27 12:35 55.60671 49.29991 415 ft 4 kts 34°
2026-04-27 12:35 55.60647 49.29967 412 ft 4 kts
2026-04-27 12:35 55.60622 49.29977 412 ft 4 kts 311°
2026-04-27 12:35 55.60617 49.29986 413 ft 0 kts 298°
2026-04-27 12:40 55.60618 49.29982 415 ft 1 kts 298°
2026-04-27 12:41 55.60623 49.29967 409 ft 2 kts 300°
2026-04-27 12:41 55.60641 49.29916 413 ft 8 kts 303°
2026-04-27 12:41 55.60679 49.29818 413 ft 10 kts 305°
2026-04-27 12:41 55.60716 49.29727 413 ft 9 kts 305°
2026-04-27 12:42 55.60757 49.29623 413 ft 10 kts 304°
2026-04-27 12:42 55.60791 49.29534 412 ft 8 kts 304°
2026-04-27 12:42 55.60795 49.29454 410 ft 8 kts 230°
2026-04-27 12:42 55.60755 49.29371 407 ft 10 kts 228°
2026-04-27 12:43 55.60691 49.29285 410 ft 13 kts 213°
2026-04-27 12:43 55.60614 49.29184 414 ft 15 kts 226°
2026-04-27 12:43 55.60576 49.29009 415 ft 17 kts 271°
2026-04-27 12:43 55.60584 49.28792 415 ft 18 kts 275°
2026-04-27 12:44 55.60611 49.28570 413 ft 19 kts 295°
2026-04-27 12:44 55.60688 49.28359 409 ft 22 kts 303°
2026-04-27 12:44 55.60778 49.28127 409 ft 24 kts 304°
2026-04-27 12:44 55.60873 49.27880 414 ft 26 kts 304°
2026-04-27 12:45 55.60977 49.27612 411 ft 27 kts 304°
2026-04-27 12:45 55.61088 49.27326 410 ft 29 kts 304°
2026-04-27 12:45 55.61204 49.27028 412 ft 30 kts 304°
2026-04-27 12:45 55.61321 49.26728 413 ft 29 kts 305°
2026-04-27 12:46 55.61436 49.26429 414 ft 29 kts 304°
2026-04-27 12:46 55.61551 49.26134 413 ft 29 kts 305°
2026-04-27 12:46 55.61667 49.25834 415 ft 30 kts 304°
2026-04-27 12:46 55.61781 49.25547 415 ft 24 kts 304°
2026-04-27 12:47 55.61844 49.25382 409 ft 10 kts 304°
2026-04-27 12:47 55.61838 49.25290 413 ft 8 kts 233°
2026-04-27 12:47 55.61780 49.25207 409 ft 15 kts 214°
2026-04-27 12:47 55.61698 49.25143 409 ft 10 kts 158°
2026-04-27 12:48 55.61658 49.25221 411 ft 8 kts 123°
2026-04-27 12:48 55.61625 49.25313 411 ft 10 kts 123°
2026-04-27 12:48 55.61524 49.25556 414 ft 54 kts 127°
2026-04-27 12:48 55.61165 49.26463 416 ft 123 kts 126°
2026-04-27 12:49 55.60531 49.27944 476 ft 172 kts 130°
2026-04-27 12:49 55.59831 49.29667 1283 ft 172 kts 133°
2026-04-27 12:49 55.59164 49.31398 2151 ft 167 kts 132°
2026-04-27 12:49 55.58546 49.33222 2576 ft 182 kts 126°
2026-04-27 12:50 55.57987 49.35318 2959 ft 194 kts 123°
2026-04-27 12:50 55.57418 49.37516 3348 ft 200 kts 127°
2026-04-27 12:50 55.56621 49.39610 3519 ft 213 kts 137°
2026-04-27 12:50 55.55647 49.41642 3706 ft 232 kts 144°
2026-04-27 12:51 55.54414 49.43650 4080 ft 248 kts 146°
2026-04-27 12:51 55.53106 49.45699 4763 ft 253 kts 147°
2026-04-27 12:51 55.51794 49.47784 5566 ft 254 kts 146°
2026-04-27 12:51 55.50498 49.49902 6310 ft 255 kts 145°
2026-04-27 12:52 55.49216 49.52040 6526 ft 252 kts 144°
2026-04-27 12:52 55.47957 49.54173 6582 ft 251 kts 144°
2026-04-27 12:52 55.46707 49.56304 6590 ft 250 kts 144°
2026-04-27 12:52 55.45461 49.58437 6595 ft 250 kts 144°
2026-04-27 12:53 55.42978 49.62702 6596 ft 249 kts 144°
2026-04-27 12:53 55.41738 49.64830 6601 ft 249 kts 144°
2026-04-27 12:53 55.40498 49.66957 6598 ft 249 kts 144°
2026-04-27 12:54 55.39257 49.69082 6600 ft 249 kts 144°
2026-04-27 12:54 55.38017 49.71204 6601 ft 249 kts 144°
2026-04-27 12:54 55.36774 49.73323 6612 ft 249 kts 144°
2026-04-27 12:54 55.35531 49.75443 6611 ft 249 kts 144°
2026-04-27 12:55 55.34286 49.77561 6617 ft 249 kts 144°
2026-04-27 12:55 55.33041 49.79681 6617 ft 249 kts 144°
2026-04-27 12:55 55.31798 49.81792 6613 ft 249 kts 144°
2026-04-27 12:55 55.30549 49.83893 6620 ft 247 kts 147°
2026-04-27 12:56 55.29147 49.85503 6644 ft 238 kts 163°
2026-04-27 12:56 55.27581 49.86392 7291 ft 235 kts 169°
2026-04-27 12:56 55.26018 49.87204 8170 ft 233 kts 167°
2026-04-27 12:56 55.24467 49.88028 8990 ft 233 kts 166°
2026-04-27 12:57 55.22923 49.88852 9762 ft 232 kts 166°
2026-04-27 12:57 55.21324 49.89704 10028 ft 251 kts 166°
2026-04-27 12:57 55.19583 49.90626 10160 ft 272 kts 166°
2026-04-27 12:57 55.17699 49.91616 10284 ft 292 kts 166°
2026-04-27 12:58 55.15690 49.92670 10431 ft 309 kts 166°
2026-04-27 12:58 55.13601 49.93768 10851 ft 316 kts 165°
2026-04-27 12:58 55.11485 49.94888 11448 ft 318 kts 165°
2026-04-27 12:58 55.09363 49.96009 12075 ft 320 kts 165°
2026-04-27 12:59 55.07230 49.97133 12656 ft 321 kts 165°
2026-04-27 12:59 55.05086 49.98261 13255 ft 322 kts 165°
2026-04-27 12:59 55.02933 49.99393 13825 ft 324 kts 165°
2026-04-27 12:59 55.00773 50.00525 14354 ft 325 kts 166°
2026-04-27 13:00 54.98603 50.01657 14868 ft 326 kts 166°
2026-04-27 13:00 54.96421 50.02795 15374 ft 328 kts 166°
2026-04-27 13:00 54.94230 50.03936 15870 ft 329 kts 167°
2026-04-27 13:00 54.92026 50.05078 16344 ft 331 kts 167°
2026-04-27 13:01 54.89815 50.06223 16814 ft 333 kts 167°
2026-04-27 13:01 54.87589 50.07377 17281 ft 335 kts 167°
2026-04-27 13:01 54.85352 50.08537 17741 ft 336 kts 167°
2026-04-27 13:01 54.83105 50.09699 18157 ft 338 kts 168°
2026-04-27 13:02 54.80844 50.10866 18544 ft 340 kts 168°
2026-04-27 13:02 54.78572 50.12037 18917 ft 342 kts 168°
2026-04-27 13:02 54.76287 50.13214 19274 ft 344 kts 168°
2026-04-27 13:02 54.73986 50.14398 19629 ft 346 kts 168°
2026-04-27 13:03 54.71671 50.15585 19986 ft 348 kts 168°
2026-04-27 13:03 54.69344 50.16774 20334 ft 350 kts 169°
2026-04-27 13:03 54.67001 50.17970 20660 ft 352 kts 169°
2026-04-27 13:03 54.64647 50.19177 20994 ft 354 kts 169°
2026-04-27 13:04 54.62278 50.20391 21306 ft 356 kts 169°
2026-04-27 13:04 54.59894 50.21611 21603 ft 359 kts 169°
2026-04-27 13:04 54.57494 50.22842 21907 ft 361 kts 169°
2026-04-27 13:04 54.55081 50.24076 22206 ft 363 kts 169°
2026-04-27 13:05 54.53441 50.24913 22411 ft 364 kts 169°
2026-04-27 13:05 54.51005 50.26155 22715 ft 366 kts 169°
2026-04-27 13:05 54.48551 50.27403 23020 ft 369 kts 169°
2026-04-27 13:05 54.46087 50.28652 23293 ft 371 kts 169°
2026-04-27 13:06 54.43608 50.29912 23523 ft 373 kts 169°
2026-04-27 13:06 54.41115 50.31178 23756 ft 374 kts 169°
2026-04-27 13:06 54.38596 50.32245 23975 ft 371 kts 176°
2026-04-27 13:06 54.36039 50.32917 24194 ft 373 kts 176°
2026-04-27 13:07 54.33469 50.33584 24428 ft 374 kts 176°
2026-04-27 13:07 54.30893 50.34250 24650 ft 375 kts 176°
2026-04-27 13:07 54.28305 50.34918 24870 ft 377 kts 176°
2026-04-27 13:07 54.25706 50.35589 25087 ft 378 kts 176°
2026-04-27 13:08 54.23099 50.36262 25307 ft 380 kts 176°
2026-04-27 13:08 54.20481 50.36940 25517 ft 381 kts 176°
2026-04-27 13:08 54.17854 50.37624 25735 ft 382 kts 176°
2026-04-27 13:08 54.15226 50.38307 26036 ft 382 kts 176°
2026-04-27 13:09 54.12604 50.38983 26326 ft 381 kts 177°
2026-04-27 13:09 54.09978 50.39657 26615 ft 381 kts 177°
2026-04-27 13:09 54.07359 50.40329 26900 ft 380 kts 177°
2026-04-27 13:09 54.04746 50.40999 27187 ft 380 kts 177°
2026-04-27 13:10 54.02132 50.41669 27474 ft 380 kts 177°
2026-04-27 13:10 53.99521 50.42340 27796 ft 379 kts 177°
2026-04-27 13:10 53.96913 50.43012 28089 ft 379 kts 177°
2026-04-27 13:10 53.94308 50.43682 28408 ft 378 kts 177°
2026-04-27 13:11 53.91709 50.44347 28717 ft 378 kts 177°
2026-04-27 13:11 53.89113 50.45012 29029 ft 377 kts 177°
2026-04-27 13:11 53.86519 50.45675 29345 ft 376 kts 178°
2026-04-27 13:11 53.83934 50.46330 29674 ft 376 kts 178°
2026-04-27 13:12 53.81350 50.46982 29960 ft 375 kts 178°
2026-04-27 13:12 53.78770 50.47630 30174 ft 375 kts 178°
2026-04-27 13:12 53.76185 50.48283 30380 ft 376 kts 178°
2026-04-27 13:12 53.73597 50.48938 30576 ft 376 kts 178°
2026-04-27 13:13 53.71008 50.49590 30777 ft 377 kts 178°
2026-04-27 13:13 53.68416 50.50241 30988 ft 377 kts 178°
2026-04-27 13:13 53.65819 50.50895 31202 ft 377 kts 178°
2026-04-27 13:13 53.63220 50.51552 31410 ft 378 kts 178°
2026-04-27 13:14 53.60620 50.52209 31607 ft 378 kts 178°
2026-04-27 13:14 53.58016 50.52866 31829 ft 378 kts 178°
2026-04-27 13:14 53.55413 50.53519 32031 ft 379 kts 178°
2026-04-27 13:14 53.52805 50.54170 32239 ft 379 kts 178°
2026-04-27 13:15 53.50197 50.54819 32444 ft 379 kts 178°
2026-04-27 13:15 53.47590 50.55474 32642 ft 379 kts 178°
2026-04-27 13:15 53.42353 50.56792 32739 ft 382 kts 178°
2026-04-27 13:16 53.37097 50.58102 32743 ft 382 kts 178°
2026-04-27 13:16 53.31840 50.59401 32747 ft 382 kts 178°
2026-04-27 13:17 53.26580 50.60689 32753 ft 382 kts 178°
2026-04-27 13:17 53.21319 50.61987 32757 ft 382 kts 178°
2026-04-27 13:18 53.16059 50.63288 32750 ft 382 kts 178°
2026-04-27 13:18 53.10798 50.64585 32752 ft 382 kts 178°
2026-04-27 13:19 53.05538 50.65878 32751 ft 382 kts 179°
2026-04-27 13:19 53.00280 50.67171 32749 ft 382 kts 179°
2026-04-27 13:20 52.95018 50.68457 32752 ft 382 kts 179°
2026-04-27 13:20 52.89753 50.69730 32776 ft 382 kts 179°
2026-04-27 13:21 52.84487 50.71001 32776 ft 383 kts 179°
2026-04-27 13:21 52.79216 50.72282 32786 ft 383 kts 179°
2026-04-27 13:22 52.73944 50.73554 32782 ft 383 kts 179°
2026-04-27 13:22 52.68664 50.74819 32789 ft 383 kts 179°
2026-04-27 13:23 52.63383 50.76090 32792 ft 384 kts 179°
2026-04-27 13:23 52.58096 50.77372 32794 ft 384 kts 179°
2026-04-27 13:24 52.52808 50.78645 32796 ft 384 kts 179°
2026-04-27 13:24 52.47517 50.79897 32800 ft 384 kts 179°
2026-04-27 13:25 52.42221 50.81150 32808 ft 384 kts 179°
2026-04-27 13:25 52.36924 50.82406 32808 ft 385 kts 179°
2026-04-27 13:26 52.31625 50.83664 32800 ft 385 kts 179°
2026-04-27 13:26 52.26323 50.84916 32803 ft 385 kts 179°
2026-04-27 13:27 52.21020 50.86176 32811 ft 385 kts 179°
2026-04-27 13:27 52.15710 50.87433 32814 ft 386 kts 179°
2026-04-27 13:28 52.10395 50.88678 32820 ft 386 kts 179°
2026-04-27 13:28 52.05075 50.89918 32822 ft 386 kts 179°
2026-04-27 13:29 51.99748 50.91166 32824 ft 387 kts 179°
2026-04-27 13:29 51.94417 50.92404 32830 ft 387 kts 180°
2026-04-27 13:30 51.89080 50.93634 32827 ft 388 kts 179°
2026-04-27 13:30 51.83738 50.94878 32836 ft 388 kts 179°
2026-04-27 13:31 51.78391 50.96119 32837 ft 388 kts 179°
2026-04-27 13:31 51.73034 50.97356 32835 ft 389 kts 180°
2026-04-27 13:32 51.67675 50.98589 32842 ft 389 kts 180°
2026-04-27 13:32 51.62316 50.99367 32847 ft 385 kts 184°
2026-04-27 13:33 51.56963 50.99742 32850 ft 385 kts 185°
2026-04-27 13:33 51.51607 51.00122 32853 ft 386 kts 184°
2026-04-27 13:34 51.46238 51.00594 32854 ft 387 kts 184°
2026-04-27 13:34 51.40865 51.01096 32855 ft 387 kts 184°
2026-04-27 13:35 51.35487 51.01600 32864 ft 387 kts 184°
2026-04-27 13:35 51.30102 51.02095 32865 ft 388 kts 184°
2026-04-27 13:36 51.24711 51.02590 32869 ft 388 kts 184°
2026-04-27 13:36 51.19318 51.03087 32872 ft 388 kts 184°
2026-04-27 13:37 51.13918 51.03578 32873 ft 389 kts 184°
2026-04-27 13:37 51.08511 51.04062 32877 ft 389 kts 184°
2026-04-27 13:38 51.03103 51.04548 32879 ft 389 kts 184°
2026-04-27 13:38 50.97688 51.05033 32877 ft 390 kts 184°
2026-04-27 13:39 50.92269 51.05532 32881 ft 390 kts 184°
2026-04-27 13:39 50.86846 51.06025 32883 ft 391 kts 184°
2026-04-27 13:40 50.81418 51.06503 32884 ft 391 kts 184°
2026-04-27 13:40 50.75985 51.06979 32882 ft 391 kts 184°
2026-04-27 13:41 50.70550 51.07467 32889 ft 392 kts 184°
2026-04-27 13:41 50.65104 51.07961 32888 ft 392 kts 184°
2026-04-27 13:42 50.59652 51.08452 32892 ft 392 kts 184°
2026-04-27 13:42 50.54197 51.08937 32894 ft 393 kts 184°
2026-04-27 13:43 50.48735 51.09411 32891 ft 393 kts 184°
2026-04-27 13:43 50.44191 51.09805 32906 ft 394 kts 184°
2026-04-27 13:44 50.38714 51.10293 32900 ft 394 kts 184°
2026-04-27 13:44 50.33235 51.10780 32904 ft 395 kts 184°
2026-04-27 13:45 50.27753 51.11254 32900 ft 395 kts 184°
2026-04-27 13:45 50.22261 51.11725 32905 ft 395 kts 184°
2026-04-27 13:46 50.16763 51.12207 32904 ft 396 kts 184°
2026-04-27 13:46 50.11256 51.12692 32906 ft 397 kts 184°
2026-04-27 13:47 50.05741 51.13176 32907 ft 397 kts 184°
2026-04-27 13:47 50.00221 51.13653 32907 ft 398 kts 184°
2026-04-27 13:48 49.94685 51.14123 32908 ft 399 kts 184°
2026-04-27 13:48 49.89142 51.14600 32910 ft 399 kts 184°
2026-04-27 13:49 49.83591 51.15073 32912 ft 400 kts 184°
2026-04-27 13:49 49.78032 51.15546 32910 ft 400 kts 184°
2026-04-27 13:50 49.72465 51.16021 32912 ft 401 kts 184°
2026-04-27 13:50 49.66889 51.16493 32916 ft 402 kts 184°
2026-04-27 13:51 49.61303 51.16972 32911 ft 402 kts 184°
2026-04-27 13:51 49.55710 51.17451 32908 ft 403 kts 184°
2026-04-27 13:52 49.50106 51.17930 32908 ft 404 kts 184°
2026-04-27 13:52 49.44491 51.18405 32910 ft 404 kts 184°
2026-04-27 13:53 49.36057 51.19123 32913 ft 405 kts 184°
2026-04-27 13:54 49.30422 51.19597 32911 ft 406 kts 184°
2026-04-27 13:54 49.24780 51.20069 32913 ft 407 kts 184°
2026-04-27 13:55 49.19126 51.20535 32909 ft 407 kts 184°
2026-04-27 13:55 49.13463 51.21005 32908 ft 408 kts 183°
2026-04-27 13:56 49.07794 51.21495 32914 ft 409 kts 183°
2026-04-27 13:56 49.02110 51.21973 32916 ft 409 kts 183°
2026-04-27 13:57 48.96421 51.22435 32914 ft 410 kts 183°
2026-04-27 13:57 48.90720 51.22891 32914 ft 411 kts 183°
2026-04-27 13:58 48.85010 51.23370 32917 ft 411 kts 183°
2026-04-27 13:58 48.79289 51.23853 32916 ft 412 kts 183°
2026-04-27 13:59 48.73557 51.24313 32919 ft 413 kts 183°
2026-04-27 13:59 48.67813 51.24778 32924 ft 414 kts 183°
2026-04-27 14:00 48.62065 51.25256 32917 ft 414 kts 183°
2026-04-27 14:00 48.56303 51.25725 32921 ft 415 kts 183°
2026-04-27 14:01 48.50531 51.26200 32925 ft 416 kts 182°
2026-04-27 14:01 48.44751 51.26668 32924 ft 416 kts 182°
2026-04-27 14:02 48.38963 51.27134 32926 ft 417 kts 182°
2026-04-27 14:02 48.33165 51.27608 32928 ft 418 kts 182°
2026-04-27 14:03 48.27360 51.28078 32932 ft 418 kts 182°
2026-04-27 14:03 48.21549 51.28545 32935 ft 418 kts 182°
2026-04-27 14:04 48.15729 51.29013 32932 ft 419 kts 182°
2026-04-27 14:04 48.09894 51.29486 32931 ft 420 kts 182°
2026-04-27 14:05 48.04049 51.29955 32937 ft 421 kts 182°
2026-04-27 14:05 47.98191 51.30432 32941 ft 422 kts 182°
2026-04-27 14:06 47.92323 51.30907 32942 ft 423 kts 182°
2026-04-27 14:06 47.86447 51.31374 32942 ft 423 kts 182°
2026-04-27 14:07 47.80561 51.31830 32945 ft 424 kts 182°
2026-04-27 14:07 47.74671 51.32282 32946 ft 424 kts 182°
2026-04-27 14:08 47.68770 51.32743 32951 ft 425 kts 181°
2026-04-27 14:08 47.62862 51.33214 32949 ft 425 kts 181°
2026-04-27 14:09 47.56945 51.33690 32959 ft 426 kts 181°
2026-04-27 14:09 47.51019 51.34160 32954 ft 427 kts 181°
2026-04-27 14:10 47.45085 51.34617 32964 ft 427 kts 181°
2026-04-27 14:10 47.39139 51.35079 32961 ft 428 kts 181°
2026-04-27 14:11 47.33186 51.35545 32962 ft 429 kts 181°
2026-04-27 14:11 47.27226 51.36000 32963 ft 429 kts 181°
2026-04-27 14:12 47.21253 51.36459 32964 ft 430 kts 181°
2026-04-27 14:12 47.15275 51.36924 32966 ft 431 kts 181°
2026-04-27 14:13 47.09288 51.37388 32970 ft 431 kts 181°
2026-04-27 14:13 47.03295 51.37848 32971 ft 431 kts 181°
2026-04-27 14:14 46.97299 51.38308 32971 ft 432 kts 181°
2026-04-27 14:14 46.91296 51.38778 32972 ft 432 kts 181°
2026-04-27 14:15 46.85284 51.39233 32973 ft 433 kts 181°
2026-04-27 14:15 46.79270 51.39685 32975 ft 433 kts 181°
2026-04-27 14:16 46.73248 51.40145 32974 ft 433 kts 181°
2026-04-27 14:16 46.67225 51.40607 32973 ft 434 kts 181°
2026-04-27 14:17 46.61196 51.41071 32973 ft 434 kts 181°
2026-04-27 14:17 46.55171 51.41524 32975 ft 434 kts 181°
2026-04-27 14:18 46.49140 51.41968 32976 ft 434 kts 181°
2026-04-27 14:18 46.43110 51.42425 32976 ft 434 kts 181°
2026-04-27 14:19 46.37078 51.42886 32974 ft 434 kts 181°
2026-04-27 14:19 46.31050 51.43333 32976 ft 434 kts 181°
2026-04-27 14:20 46.25019 51.43780 32974 ft 434 kts 181°
2026-04-27 14:20 46.18954 51.44238 32976 ft 434 kts 181°
2026-04-27 14:21 46.12971 51.44688 32976 ft 433 kts 181°
2026-04-27 14:21 46.06951 51.45132 32977 ft 433 kts 181°
2026-04-27 14:22 46.00889 51.45585 32975 ft 433 kts 181°
2026-04-27 14:22 45.94912 51.46028 32973 ft 433 kts 181°
2026-04-27 14:23 45.88901 51.46476 32977 ft 433 kts 181°
2026-04-27 14:23 45.82890 51.46919 32970 ft 432 kts 181°
2026-04-27 14:24 45.76883 51.47360 32974 ft 432 kts 181°
2026-04-27 14:24 45.70886 51.47677 32967 ft 428 kts 187°
2026-04-27 14:25 45.66100 51.46046 32970 ft 420 kts 207°
2026-04-27 14:25 45.61114 51.41746 32971 ft 419 kts 214°
2026-04-27 14:26 45.56185 51.37291 32967 ft 420 kts 214°
2026-04-27 14:26 45.51245 51.32850 32976 ft 420 kts 214°
2026-04-27 14:27 45.46308 51.28409 32967 ft 420 kts 214°
2026-04-27 14:27 45.41374 51.23962 32967 ft 420 kts 214°
2026-04-27 14:28 45.36436 51.19524 32972 ft 420 kts 214°
2026-04-27 14:28 45.31489 51.15097 32968 ft 420 kts 214°
2026-04-27 14:29 45.26547 51.10671 32968 ft 420 kts 214°
2026-04-27 14:29 45.21601 51.06251 32966 ft 420 kts 214°
2026-04-27 14:30 45.16648 51.01840 32970 ft 420 kts 214°
2026-04-27 14:30 45.11695 50.97443 32965 ft 420 kts 214°
2026-04-27 14:31 45.06744 50.93053 32970 ft 420 kts 214°
2026-04-27 14:31 45.01793 50.88670 32969 ft 420 kts 214°
2026-04-27 14:32 44.96841 50.84304 32966 ft 419 kts 214°
2026-04-27 14:32 44.91890 50.79945 32967 ft 419 kts 214°
2026-04-27 14:33 44.86938 50.75599 32967 ft 419 kts 214°
2026-04-27 14:33 44.81997 50.71261 32964 ft 418 kts 214°
2026-04-27 14:34 44.77057 50.66926 32967 ft 418 kts 214°
2026-04-27 14:34 44.72115 50.62611 32965 ft 418 kts 214°
2026-04-27 14:35 44.67175 50.58297 32963 ft 418 kts 214°
2026-04-27 14:35 44.62237 50.53997 32963 ft 418 kts 214°
2026-04-27 14:36 44.57296 50.49713 32959 ft 417 kts 214°
2026-04-27 14:36 44.52356 50.45438 32960 ft 417 kts 214°
2026-04-27 14:37 44.47423 50.41169 32959 ft 417 kts 214°
2026-04-27 14:37 44.42491 50.36913 32955 ft 416 kts 214°
2026-04-27 14:38 44.37566 50.32660 32958 ft 416 kts 214°
2026-04-27 14:38 44.32640 50.28420 32958 ft 416 kts 214°
2026-04-27 14:39 44.27716 50.24194 32953 ft 415 kts 214°
2026-04-27 14:39 44.22795 50.19977 32954 ft 415 kts 214°
2026-04-27 14:40 44.17875 50.15769 32958 ft 415 kts 214°
2026-04-27 14:40 44.12955 50.11574 32952 ft 415 kts 214°
2026-04-27 14:41 44.08033 50.07391 32949 ft 414 kts 214°
2026-04-27 14:41 44.03111 50.03211 32949 ft 414 kts 214°
2026-04-27 14:42 43.98191 49.99030 32951 ft 415 kts 214°
2026-04-27 14:42 43.93266 49.94859 32960 ft 415 kts 214°
2026-04-27 14:43 43.88333 49.90688 32957 ft 415 kts 214°
2026-04-27 14:43 43.83400 49.86523 32957 ft 415 kts 214°
2026-04-27 14:44 43.78464 49.82370 32956 ft 415 kts 214°
2026-04-27 14:44 43.73519 49.78224 32957 ft 416 kts 214°
2026-04-27 14:45 43.68573 49.74084 32956 ft 416 kts 213°
2026-04-27 14:45 43.63622 49.69947 32953 ft 416 kts 213°
2026-04-27 14:46 43.58675 49.65813 32956 ft 416 kts 213°
2026-04-27 14:46 43.53725 49.61685 32957 ft 416 kts 213°
2026-04-27 14:47 43.48778 49.57559 32955 ft 416 kts 213°
2026-04-27 14:47 43.43819 49.53440 32957 ft 416 kts 214°
2026-04-27 14:47 43.41538 49.51023 32962 ft 413 kts 226°
2026-04-27 14:48 43.39691 49.48010 32962 ft 412 kts 237°
2026-04-27 14:48 43.37434 49.40778 32966 ft 415 kts 250°
2026-04-27 14:48 43.36537 49.37013 32967 ft 415 kts 250°
2026-04-27 14:49 43.34722 49.29487 32968 ft 415 kts 250°
2026-04-27 14:49 43.32890 49.21963 32970 ft 415 kts 250°
2026-04-27 14:50 43.31049 49.14440 32977 ft 416 kts 250°
2026-04-27 14:50 43.29204 49.06922 32983 ft 416 kts 250°
2026-04-27 14:51 43.27357 48.99404 32981 ft 416 kts 250°
2026-04-27 14:51 43.25807 48.93100 32987 ft 416 kts 250°
2026-04-27 14:52 43.23649 48.84363 32987 ft 416 kts 250°
2026-04-27 14:52 43.21785 48.76847 32991 ft 417 kts 250°
2026-04-27 14:53 43.19915 48.69326 32995 ft 417 kts 249°
2026-04-27 14:53 43.18045 48.61813 33000 ft 417 kts 249°
2026-04-27 14:54 43.16160 48.54298 33003 ft 417 kts 249°
2026-04-27 14:54 43.14270 48.46782 33010 ft 417 kts 249°
2026-04-27 14:55 43.12376 48.39272 33011 ft 418 kts 249°
2026-04-27 14:55 43.10472 48.31763 33013 ft 418 kts 249°
2026-04-27 14:56 43.08565 48.24256 33020 ft 418 kts 249°
2026-04-27 14:56 43.06654 48.16756 33023 ft 418 kts 249°
2026-04-27 14:57 43.04739 48.09261 33031 ft 418 kts 249°
2026-04-27 14:57 43.02824 48.01764 33040 ft 418 kts 249°
2026-04-27 14:58 43.00902 47.94279 33052 ft 418 kts 249°
2026-04-27 14:58 42.98972 47.86795 33053 ft 418 kts 249°
2026-04-27 14:59 42.97037 47.79311 33084 ft 418 kts 249°
2026-04-27 14:59 42.95098 47.71827 33077 ft 418 kts 249°
2026-04-27 15:00 42.93470 47.65562 33077 ft 418 kts 249°
2026-04-27 15:00 42.91202 47.56864 33081 ft 419 kts 249°
2026-04-27 15:01 42.89241 47.49391 33079 ft 419 kts 249°
2026-04-27 15:01 42.87274 47.41919 33081 ft 419 kts 249°
2026-04-27 15:02 42.85629 47.35665 33086 ft 418 kts 249°
2026-04-27 15:02 42.83660 47.28203 33079 ft 418 kts 249°
2026-04-27 15:03 42.81687 47.20759 33092 ft 418 kts 248°
2026-04-27 15:03 42.79710 47.13321 33103 ft 417 kts 248°
2026-04-27 15:04 42.77731 47.05888 33101 ft 418 kts 248°
2026-04-27 15:04 42.75744 46.98461 33087 ft 418 kts 248°
2026-04-27 15:05 42.73747 46.91034 33100 ft 418 kts 248°
2026-04-27 15:05 42.71748 46.83606 33089 ft 418 kts 248°
2026-04-27 15:06 42.69754 46.76178 33091 ft 418 kts 248°
2026-04-27 15:06 42.67748 46.68751 33084 ft 418 kts 248°
2026-04-27 15:07 42.65736 46.61326 33077 ft 419 kts 248°
2026-04-27 15:07 42.63717 46.53913 33070 ft 419 kts 248°
2026-04-27 15:08 42.61683 46.46502 33071 ft 419 kts 247°